User: anonymous   Login
Location: Innerarity Island Observatory
(30.3139°N, 87.4867°W)
Time: 02:47:17
(UTC-05:00)
Language:

JAS-2 - Orbit

View from above orbital plane
View from above orbital plane
View from above satellite
View from above satellite

Ground track
Ground track

The orbit data is extracted from the following two-line orbital elements,

1 24278U 96046B   14297.50599590  .00000030  00000-0  68388-4 0  5012
2 24278 098.5163 293.5225 0349693 322.2293 210.3981 13.53033292898158
Epoch (UTC): 24 October 2014 12:08:38
Eccentricity: 0.0349693
inclination: 98.5163°
perigee height: 801 km
apogee height: 1321 km
right ascension of ascending node: 293.5225°
argument of perigee: 322.2293°
revolutions per day: 13.53033292
mean anomaly at epoch: 210.3981°
orbit number at epoch: 89815

The dashed part of the orbit path shows where the satellite is in the earth's shadow,  

DLR